McAllen, TX

1:25 PM CDT on June 25, 2017 (GMT -0500)
McAllen Miller International

Weather History for KMFE - December, 2013

Change the Weather History Date:

Thursday, December 26, 2013

  Actual Average Record
Temperature  
Mean Temperature 57 °F 60 °F  
Max Temperature 62 °F 70 °F 89 °F (2015)
Min Temperature 52 °F 51 °F 30 °F (2004)
Degree Days  
Heating Degree Days 8 7  
Month to date heating degree days 183 143  
Since 1 July heating degree days 309 203  
Cooling Degree Days 0 2  
Month to date cooling degree days 46 72  
Year to date cooling degree days 4581 4441  
Growing Degree Days 7 (Base 50)    
Moisture  
Dew Point 53 °F    
Average Humidity 97    
Maximum Humidity 100    
Minimum Humidity 93    
Precipitation  
Precipitation 0.78 in 0.04 in 0.78 in (2013)
Month to date precipitation 0.96 0.98  
Year to date precipitation 16.43 21.99  
Sea Level Pressure  
Sea Level Pressure 30.30 in    
Wind  
Wind Speed 8 mph (NW)    
Max Wind Speed 13 mph    
Max Gust Speed 15 mph    
Visibility 6 miles    
Events Rain    
T = Trace of Precipitation, MM = Missing Value Source: NWS Daily Summary

Daily Weather History Graph

Daily Weather History Graph

Search for Another Location

Airport or City:

Trip Planner

Search our weather history database for the weather conditions in past years. The results will help you decide how hot, cold, wet, or windy it might be!

Date:

Astronomy

Dec. 26, 2013 Rise Set
Actual Time 7:18 AM CST 5:49 PM CST
Civil Twilight 6:53 AM CST 6:14 PM CST
Nautical Twilight 6:24 AM CST 6:43 PM CST
Astronomical Twilight 5:56 AM CST 7:11 PM CST
Moon 1:13 AM CST (12/26) 1:03 PM CST (12/26)
Length of Visible Light 11h 21m
Length of Day
10h 30m
Last Quarter, 38% of the Moon is Illuminated
Dec 26
Last Quarter
Jan 1
New
Jan 7
First Quarter
Jan 15
Full
Jan 23
Last Quarter

Hourly Weather History & Observations

Time (CST) Temp. Dew Point Humidity Pressure Visibility Wind Dir Wind Speed Gust Speed Precip Events Conditions
12:53 AM 62.1 °F 60.1 °F 93% 30.27 in 4.0 mi NNW 8.1 mph - 0.08 in Rain Light Rain
1:53 AM 61.0 °F 59.0 °F 93% 30.27 in 9.0 mi NW 3.5 mph - 0.02 in Rain Light Rain
2:53 AM 60.1 °F 59.0 °F 96% 30.25 in 10.0 mi WNW 3.5 mph - 0.04 in Rain Light Rain
3:53 AM 57.0 °F 55.0 °F 93% 30.26 in 7.0 mi West 8.1 mph - 0.00 in Rain Light Rain
4:53 AM 55.0 °F 54.0 °F 96% 30.27 in 5.0 mi West 4.6 mph - 0.07 in Rain Rain
5:18 AM 55.4 °F 53.6 °F 94% 30.27 in 8.0 mi WNW 10.4 mph - 0.00 in   Overcast
5:32 AM 55.4 °F 53.6 °F 94% 30.27 in 7.0 mi West 10.4 mph - 0.00 in Rain Light Rain
5:40 AM 55.4 °F 53.6 °F 94% 30.27 in 9.0 mi West 6.9 mph - 0.00 in Rain Light Rain
5:48 AM 55.4 °F 53.6 °F 94% 30.27 in 10.0 mi West 6.9 mph - 0.00 in   Overcast
5:53 AM 55.0 °F 53.1 °F 93% 30.27 in 10.0 mi West 8.1 mph - 0.00 in   Overcast
6:12 AM 55.4 °F 53.6 °F 94% 30.27 in 10.0 mi WNW 9.2 mph - N/A   Overcast
6:51 AM 55.4 °F 53.6 °F 94% 30.29 in 9.0 mi WNW 4.6 mph - 0.00 in Rain Light Rain
6:53 AM 55.0 °F 54.0 °F 96% 30.29 in 7.0 mi WNW 4.6 mph - 0.00 in Rain Light Rain
7:04 AM 55.4 °F 53.6 °F 94% 30.30 in 6.0 mi West 6.9 mph - 0.01 in Rain Light Rain
7:53 AM 55.0 °F 53.1 °F 93% 30.32 in 5.0 mi WNW 8.1 mph - 0.03 in Rain Light Rain
8:35 AM 53.6 °F 53.6 °F 100% 30.34 in 8.0 mi West 6.9 mph - 0.02 in Rain Light Rain
8:53 AM 54.0 °F 53.1 °F 97% 30.34 in 8.0 mi West 9.2 mph - 0.02 in Rain Light Rain
9:53 AM 55.0 °F 53.1 °F 93% 30.35 in 7.0 mi NW 5.8 mph - 0.00 in Rain Light Rain
10:53 AM 55.9 °F 55.0 °F 97% 30.35 in 6.0 mi WNW 5.8 mph - 0.00 in Rain Light Rain
11:53 AM 55.9 °F 54.0 °F 93% 30.34 in 3.0 mi North 9.2 mph - 0.01 in Rain Light Rain
12:02 PM 55.4 °F 53.6 °F 94% 30.34 in 2.5 mi NNW 8.1 mph - 0.01 in Rain Light Rain
12:20 PM 55.4 °F 53.6 °F 94% 30.33 in 3.0 mi NNW 8.1 mph - 0.01 in Rain Light Rain
12:53 PM 55.0 °F 54.0 °F 96% 30.31 in 5.0 mi NW 9.2 mph - 0.01 in Rain Light Rain
1:30 PM 53.6 °F 53.6 °F 100% 30.30 in 2.5 mi NW 6.9 mph - 0.02 in Rain Light Rain
1:39 PM 53.6 °F 53.6 °F 100% 30.30 in 3.0 mi NNW 6.9 mph - 0.02 in Rain Light Rain
1:50 PM 53.6 °F 53.6 °F 100% 30.29 in 2.5 mi NNW 8.1 mph - 0.04 in Rain Rain
1:53 PM 54.0 °F 53.1 °F 97% 30.30 in 2.5 mi NW 11.5 mph - 0.04 in Rain Rain
2:04 PM 53.6 °F 53.6 °F 100% 30.30 in 4.0 mi NW 8.1 mph - 0.00 in Rain Light Rain
2:13 PM 53.6 °F 53.6 °F 100% 30.29 in 5.0 mi NNW 6.9 mph - 0.00 in Rain Light Rain
2:34 PM 53.6 °F 53.6 °F 100% 30.30 in 4.0 mi NW 8.1 mph - 0.00 in Rain Light Rain
2:53 PM 54.0 °F 53.1 °F 97% 30.30 in 4.0 mi NNW 10.4 mph - 0.02 in Rain Light Rain
3:01 PM 53.6 °F 51.8 °F 94% 30.30 in 5.0 mi NNW 11.5 mph - 0.00 in Rain Light Rain
3:10 PM 53.6 °F 51.8 °F 94% 30.30 in 7.0 mi North 10.4 mph - 0.01 in Rain Light Rain
3:25 PM 53.6 °F 51.8 °F 94% 30.29 in 7.0 mi North 11.5 mph - 0.01 in Rain Light Rain
3:53 PM 54.0 °F 52.0 °F 93% 30.28 in 8.0 mi North 10.4 mph - 0.03 in Rain Light Rain
4:04 PM 53.6 °F 51.8 °F 94% 30.28 in 10.0 mi North 10.4 mph - 0.00 in Rain Light Rain
4:53 PM 53.1 °F 51.1 °F 93% 30.29 in 7.0 mi NNW 8.1 mph - 0.00 in Rain Light Rain
5:53 PM 53.1 °F 52.0 °F 96% 30.30 in 7.0 mi NNW 9.2 mph - 0.01 in Rain Light Rain
6:53 PM 54.0 °F 52.0 °F 93% 30.32 in 6.0 mi NW 6.9 mph - 0.05 in Rain Rain
7:53 PM 53.1 °F 51.1 °F 93% 30.33 in 6.0 mi NW 9.2 mph - 0.04 in Rain Light Rain
8:53 PM 52.0 °F 51.1 °F 97% 30.34 in 7.0 mi NW 9.2 mph - 0.05 in Rain Light Rain
9:53 PM 52.0 °F 51.1 °F 97% 30.35 in 8.0 mi NW 9.2 mph - 0.06 in Rain Light Rain
10:53 PM 52.0 °F 51.1 °F 97% 30.36 in 7.0 mi NW 6.9 mph - 0.08 in Rain Rain
11:53 PM 52.0 °F 51.1 °F 97% 30.34 in 10.0 mi NW 6.9 mph - 0.13 in Rain Light Rain